Regional Weather Roundup
Issued by NWS Newport/Morehead, NC

Current Version | Previous Version | Graphics & Text | Print | Product List | Glossary Off
Versions: 1 2 3 4 5 6 7 8 9 10 11 12 13 14 15 16 17 18 19 20 21 22 23 24 25 26 27 28 29 30 31 32 33 34 35 36 37 38 39 40 41 42 43 44 45 46 47 48 49 50

000
ASUS42 KMHX 240925
RWRMHX
WEATHER ROUNDUP FOR EASTERN NORTH CAROLINA
NATIONAL WEATHER SERVICE NEWPORT/MOREHEAD CITY NC
500 AM EDT TUE MAY 24 2016

NOTE: "FAIR" INDICATES FEW OR NO CLOUDS BELOW 12,000 FEET
WITH NO SIGNIFICANT WEATHER AND/OR OBSTRUCTIONS TO VISIBILITY

NCZ015>017-031-032-045>047-102-103-241000-
NORTH COAST

CITY           SKY/WX    TMP DP  RH WIND       PRES   REMARKS
EDENTON        PTCLDY   N/A N/A N/A W3        30.01R
ELIZABETH CITY PTCLDY    54  52  93 W7        29.99R
KITTY HAWK     MOSUNNY   60  55  82 W5        29.97R
MANTEO         PTCLDY    58  56  95 W6        29.99R

$$

NCZ045>047-081-094-103-104-241000-
CENTRAL COAST

CITY           SKY/WX    TMP DP  RH WIND       PRES   REMARKS
FRISCO         PTCLDY    63  52  67 W10G18    30.00R

$$

NCZ095-097-098-100-101-241000-
SOUTHERN COAST

CITY           SKY/WX    TMP DP  RH WIND       PRES   REMARKS
BEAUFORT       CLEAR     58  52  80 W7        30.03R
CEDAR ISLAND   NOT AVBL
JACKSONVILLE   CLEAR     54  52  93 W3        30.03S
PINEY ISLAND   SUNNY    N/A N/A N/A SW7       30.02R
WILMINGTON     CLEAR     55  52  89 W5        30.05R


$$

NCZ011>013-027>030-043-044-078>080-089-090>093-098-241000-
COASTAL PLAIN

CITY           SKY/WX    TMP DP  RH WIND       PRES   REMARKS
AHOSKIE        CLEAR     50  49  97 CALM      30.00S
CLINTON        CLEAR     50  50 100 CALM      30.06R
ELIZABETHTOWN  CLEAR     54  53  95 W3        30.06R
GOLDSBORO      CLEAR     53  53 100 SW5       30.03R
GREENVILLE     CLEAR     54  52  94 SW6       30.04R
HAVELOCK       CLEAR     53  50  89 W3        30.04R
KENANSVILLE    CLEAR     49  49  99 CALM      30.06R
KINSTON        CLEAR     51  50  96 SW3       30.05R
NEW BERN       CLEAR     53  50  89 SW3       30.04S
RICHLANDS      CLEAR     50  50 100 CALM      30.05R FOG
ROCKY MOUNT    CLEAR     51  50  96 S3        30.02R
WASHINGTON     CLEAR     52  50  94 SW7       30.02S
WHITEVILLE     CLEAR     51  50  95 CALM      30.06R

$$

AMZ130-135-150-152-154-156-158-170-250-252-270-ANZ085-086-088-633-658-670-241000-
MARINE OBSERVATIONS

STATION/POSITION TIME  TEMP    WIND        PRES    WAVE   SWELL
                       AIR SEA DIR/SP/G            HT/PER HT/PER
                 (UTC) (F)     (DEG/KT/KT) (MB)    (FT/S) (FT/S)
CHESAPEAKE LIGHT 0900   60     290/ 15/ 15 1015.2
64 E VA BEACH    0850   57 57  270/  8/ 10 1014.2    6/ 8   5/ 8
DUCK             0900   61 62  300/  7/ 10 1014.3
2 E DUCK         0811      62                N/A     4/ 8   2/11
OREGON INLET     0900   60 64  280/ 12/ 15 1014.9
13E OREGON INLT  0900      61                N/A     5/ 8   5/ 8
HATTERAS CG      0900   65 67  260/ 15/ 18 1015.2
DIAMOND BUOY     0850   65 68  280/ 14/ 16 1015.8    4/ 9   3/ 9
CAPE LOOKOUT     0900   62     300/ 12/ 13 1016.4
BEAUFORT LAB     0900   60 67  280/  2/  6 1015.9
30 SE NEW RVR IN 0825      73                N/A     2/ 9
27 SE WRIGHTSVLE 0908   66 72  310/  8/ 10 1016.5
5 SE WRIGHTSVLE  0908   62 71  320/ 10/ 12 1017.8
225 S CAPE HAT   0850   73 77  260/ 10/ 14 1016.6    4/ 6   3/ 6
41 SE CHARLESTON 0850   70 75   20/  6/  8 1017.7    2/ 9   2/ 9

$$



USA.gov is the U.S. government's official web portal to all federal, state and local government web resources and services.